STARLINK-3336 (50818 NORAD) Tracking and Keplerian Element Data

This shows tracking and keplerian element data for the satellite.

Feedback or suggestion? Click here.




ElementValue
Catalog50818
NameSTARLINK-3336
Epoch Orbit383
Epoch Day22.91667824
Epoch Year2022
RAAN119.7743
Inclination53.2175
Eccentricity0.0001123
Argument of Perigee61.1838
Mean Anonmoly247.1486
Mean Motion15.75156076
Decay Rate-0.00821324
L11 50818U 22001R 22022.91667824 -.00821324 00000+0 -59175-2 0 9998
L22 50818 53.2175 119.7743 0001123 61.1838 247.1486 15.75156076 3832

Live tracking and technical data element details for STARLINK-3336 (NORAD 50818). STARLINK-3336 can be tracked NOW for your location showing map with azimuth and elevation plus other details from your city location.

Track the satellite on the map from your city or location and see movement details for azimuth, elevation, latitude, longitude, range, height, and movement on the map or in text.







IsCatalogInMostPopularTable: catalog: 50818, numindb: 1
Update: records affected: 1



GetName: 50818 STARLINK-3336

Hit Count: updated at: Mon, 24 Jan 2022 01:10:52 GMT